Location: Balagbag Mahabang Kahoy
(14.1562°N, 120.9200°E)
Time: 18:03:20
(UTC+00:00)

Sich 1 - Pass Details

Date: 16 January 2026
Orbit: 572 x 598 km, 82.5° (Epoch: 17 February)

Event Time Altitude Azimuth Distance (km) Brightness Sun altitude
Rises 20:33:50 0° 182° (S) 2,816 6.6 -26.3°
Reaches altitude 10° 20:36:02 10° 181° (S) 1,912 5.7 -25.7°
Enters shadow 20:39:46 68° 163° (SSE) 634 3.1 -24.9°
